    Orbital elements:
    2017 FT101                                               Earth MOID = 0.0246 AU
    Epoch 2017 Feb. 16.0 TT = JDT 2457800.5                 MPC
    M  44.09717              (2000.0)            P               Q
    n   1.02876422     Peri.  242.25295     +0.35920385     -0.93211083
    a   0.9718341      Node   187.17786     +0.93208421     +0.36079786
    e   0.2884989      Incl.   21.74042     +0.04681473     -0.03153258
    P   0.96           H   25.7           G   0.15           U   7
    Residuals in seconds of arc
    170327 G96 (0.8+  3.4+)   170327 246  0.8+  0.0     170327 203  0.4+  0.1-
    170327 G96  0.3-  1.1+    170327 246  0.3+  0.9+    170327 595  0.0   0.1+
    170327 G96  0.1-  0.4+    170327 246 (1.6+  0.1+)   170327 958  0.4+  1.1+
    170327 G96  0.2-  0.3+    170327 246  0.5+  1.5+    170327 958  0.6+  1.1+
    170327 G96  0.2-  0.2-    170327 587  0.0   1.1+    170327 203  0.1-  0.5-
    170327 G96  0.1-  0.2-    170327 587  0.6+  0.4+    170327 958  0.9+  0.7+
    170327 G96  0.1-  0.2-    170327 C43 (1.6+  0.3-)   170327 203  0.4-  0.3-
    170327 I52  0.5+  0.2-    170327 C43  0.2+  0.4+    170328 204  0.6-  0.3-
    170327 I52  0.0   0.4-    170327 C43  0.0   0.0     170328 204  0.4-  0.2+
    170327 I52  0.2-  0.1+    170327 C43  0.6+  0.0     170328 204  0.3-  0.2+
    170327 I52  0.0   0.2+    170327 C43  0.6+  0.6-    170328 926  0.0   0.4-
    170327 474  0.2-  0.2-    170327 160  1.1-  0.4-    170328 926  0.0   0.6-
    170327 474  0.1-  0.2-    170327 160  0.5-  0.1-    170328 926  0.5+  0.7-
    170327 474  0.1-  0.4-    170327 104  0.2+  0.6+    170328 K61  0.0   1.0+
    170327 474  0.0   0.3-    170327 104  0.0   0.0     170328 K61  0.1+  1.3+
    170327 474  0.2-  0.4-    170327 104  0.0   0.1+    170328 K61  0.1+  1.1+
    170327 474  0.3-  0.1-    170327 595  0.4+  0.5-    170328 C47  0.0   0.8-
    170327 474  0.6-  0.3-    170327 160  0.2-  1.2-    170328 C47  0.1-  0.5-
    170327 474  0.3-  0.3-    170327 160  0.9-  0.3-    170328 C47  0.6-  0.8-
    170327 K51  0.3-  0.1+    170327 160  0.4-  0.6-    170328 I93  0.6-  0.1-
    170327 K51  0.5+  0.2-    170327 160  0.2+  0.4-    170328 I93  0.3+  0.7-
    170327 K51  0.4+  0.0     170327 160  0.4+  0.9-    170328 I93  0.0   0.1+
    170327 246  0.1+  0.6+    170327 595  0.3-  0.0
    
    Ephemeris:
    2017 FT101               a,e,i = 0.97, 0.29, 22                  q = 0.6915
    Date    TT    R. A. (2000) Decl.     Delta      r     Elong.  Phase     V
    2017 02 27    00 30 33.7 -56 24 43   0.2058  0.8808    52.6   116.7    26.6
    ...
    2017 03 14    01 03 33.4 -66 14 10   0.09401 0.9589    65.5   109.4    24.6
    ...
    2017 03 22    06 52 03.3 -79 44 33   0.03818 0.9988    92.6    85.2    21.6
    ...
    2017 03 28    11 31 28.9 -01 14 12   0.03023 1.0275   166.1    13.5    18.9
    2017 03 29    11 38 33.7 +08 57 54   0.03537 1.0321   162.2    17.2    19.4
    2017 03 30    11 43 59.7 +16 23 17   0.04137 1.0367   156.4    22.6    19.9
    ...
    2017 04 05    12 01 13.3 +35 05 28   0.08427 1.0635   137.0    39.9    22.0
    ...
    2017 04 13    12 11 07.0 +41 15 07   0.1462  1.0968   127.0    46.9    23.5
    ...
    2017 04 28    12 22 51.3 +42 51 00   0.2648  1.1512   116.9    51.2    25.0
    
    A. U. Tomatic                (C) Copyright 2017 MPC           M.P.E.C. 2017-F180
    

    Read MPEC 2017-F179 Read MPEC 2017-F181


    MPEC number:

    Enter an MPEC number in one of the following forms:

    • 1997-B01 (the full form)
    • J97B01 (the packed version of the full form)
    • B01 (the abbreviated form)